Aoxiang-1 (42735 NORAD) Tracking and Keplerian Element Data

This shows tracking and keplerian element data for the satellite.

Feedback or suggestion? Click here.




ElementValue
Catalog42735
NameAoxiang-1
Epoch Orbit6568
Epoch Day193.46849898
Epoch Year2018
RAAN231.5688
Inclination51.6334
Eccentricity0.0006094
Argument of Perigee333.5657
Mean Anonmoly26.5028
Mean Motion15.68075319
Decay Rate0.00015308
L11 42735U 98067MQ 18193.46849898 .00015308 00000-0 13970-3 0 9999
L22 42735 051.6334 231.5688 0006094 333.5657 026.5028 15.68075319065682

Live tracking and technical data element details for Aoxiang-1 (NORAD 42735). Aoxiang-1 can be tracked NOW for your location showing map with azimuth and elevation plus other details from your city location.

Track the satellite on the map from your city or location and see movement details for azimuth, elevation, latitude, longitude, range, height, and movement on the map or in text.







IsCatalogInMostPopularTable: catalog: 42735, numindb: 108
Update: records affected: 1



GetName: 42735 Aoxiang-1

Hit Count: updated at: Fri, 20 Jul 2018 02:37:17 GMT